www.pogodaiklimat.ru

Погода и климат >> Архив погоды >> Французская Гвиана >> Сен-Лоран-дю-Марони


ПОГОДА в Сен-Лоран-дю-Марони

  • Прогноз погоды в Сен-Лоран-дю-Марони
  • Монитор погоды в Сен-Лоран-дю-Марони

АРХИВ ПОГОДЫ в Сен-Лоран-дю-Марони

Время (UTC), дата Ветер
(напр.,м/с)
 
Видим.   Явления Облачность Т
(С)
Тd
(С)
f
(%)
Тe
(С)
Тes
(С)
Комфортность P
(гПа)
Po
(гПа)
Тmin
(С)
Tmax
(С)
R
(мм)
R24
(мм)
S
(см)
09 12.05 ЮЗ 1 н/о н/о +24.7 +24.0 96 +34 +34 очень
душно
1011.6 1011.0 +24.6 +30.7 5
12 12.05 В 3 н/о н/о +27.9 +25.1 85 +40 +40 очень
душно
1013.2 1012.6 +24.6 +30.7 0.8
15 12.05 СВ 3 н/о н/о +31.8 +24.4 65 +44 +44 опасность
перегрева
1012.7 1012.1 +24.6 +31.9
18 12.05 СВ 4 н/о н/о +30.8 +24.0 67 +42 +42 опасность
перегрева
1011.4 1010.8 +24.6 +31.9
21 12.05 СВ 2 н/о н/о +29.0 +23.2 71 +39 +39 очень
душно
1011.1 1010.5 +24.6 +31.9
00 13.05 СВ 1 н/о н/о +24.9 +23.1 90 +33 +33 очень
душно
1013.3 1012.7 +24.6 +31.9
03 13.05 штиль 0 н/о н/о +23.8 +22.9 95 +32 +32 очень
душно
1014.0 1013.4 +23.8 +31.9
06 13.05 ЮВ 1 н/о н/о +23.2 +22.5 96 +32 +32 очень
душно
1012.4 1011.8 +23.2 +31.9
09 13.05 ЮВ 1 н/о н/о +23.3 +22.8 97 +32 +32 очень
душно
1013.3 1012.7 +22.7 +31.9 0.4
12 13.05 СВ 2 н/о н/о +28.7 +24.9 80 +41 +41 опасность
перегрева
1015.0 1014.4 +22.7 +31.9 0.2
15 13.05 В 3 н/о н/о +31.3 +23.4 63 +42 +42 опасность
перегрева
1013.9 1013.3 +22.7 +31.9
18 13.05 В 3 н/о н/о +29.2 +23.4 71 +40 +40 очень
душно
1012.0 1011.4 +22.7 +31.8
21 13.05 СВ 3 н/о н/о +28.3 +23.7 76 +39 +39 очень
душно
1011.6 1011.0 +22.7 +31.8
00 14.05 СВ 1 н/о н/о +25.4 +23.8 91 +35 +35 очень
душно
1013.1 1012.5 +22.7 +31.8
03 14.05 ЮВ 1 н/о н/о +24.9 +23.9 94 +34 +34 очень
душно
1013.8 1013.2 +22.7 +31.8 0.6
06 14.05 ЮВ 1 н/о н/о +24.7 +24.0 96 +34 +34 очень
душно
1011.9 1011.3 +22.7 +31.8 0.4
09 14.05 штиль 0 н/о н/о +24.7 +24.0 96 +34 +34 очень
душно
1012.9 1012.3 +23.3 +31.8 3
12 14.05 С 1 н/о н/о +27.7 +25.5 88 +41 +41 опасность
перегрева
1014.5 1013.9 +24.6 +31.8
15 14.05 СВ 3 н/о н/о +29.5 +23.7 71 +40 +40 очень
душно
1013.8 1013.2 +24.6 +31.8
18 14.05 СВ 4 н/о н/о +29.0 +22.7 69 +38 +38 очень
душно
1010.8 1010.2 +24.6 +31.6
21 14.05 СВ 2 н/о н/о +27.2 +23.4 80 +37 +37 очень
душно
1010.2 1009.6 +24.6 +31.6
00 15.05 СВ 1 н/о н/о +26.0 +23.7 87 +35 +35 очень
душно
1012.3 1011.7 +24.6 +31.6
03 15.05 СВ 1 н/о н/о +24.9 +23.0 89 +33 +33 очень
душно
1012.8 1012.2 +24.6 +31.6
06 15.05 ЮЗ 1 н/о н/о +24.2 +23.3 95 +32 +32 очень
душно
1011.2 1010.6 +24.2 +31.6
09 15.05 штиль 0 н/о н/о +23.9 +23.2 96 +32 +32 очень
душно
1012.0 1011.4 +23.9 +31.6 7
12 15.05 Ю 1 н/о н/о +26.4 +25.0 92 +38 +38 очень
душно
1013.8 1013.2 +23.8 +31.6 0.2
15 15.05 СВ 3 н/о н/о +26.9 +24.2 85 +37 +37 очень
душно
1013.2 1012.6 +23.8 +31.6 2
18 15.05 СВ 3 н/о н/о +27.0 +24.3 85 +38 +38 очень
душно
1011.2 1010.6 +23.8 +28.9
21 15.05 СВ 1 н/о н/о +25.8 +24.6 93 +36 +36 очень
душно
1011.4 1010.8 +23.8 +28.8 0.4
00 16.05 СВ 1 н/о н/о +25.4 +24.7 96 +36 +36 очень
душно
1013.0 1012.4 +23.8 +28.8 0.6
03 16.05 штиль 0 н/о н/о +25.0 +24.3 96 +35 +35 очень
душно
1013.7 1013.1 +23.8 +28.8
06 16.05 В 1 н/о н/о +24.7 +24.2 97 +34 +34 очень
душно
1012.0 1011.4 +23.8 +28.8 5
09 16.05 З 1 н/о н/о +24.4 +23.7 96 +33 +33 очень
душно
1012.2 1011.6 +23.8 +28.8 2
12 16.05 В 1 н/о н/о +24.6 +23.9 96 +34 +34 очень
душно
1014.5 1013.9 +24.3 +28.8 4
15 16.05 ЮВ 1 н/о н/о +26.2 +25.2 94 +38 +38 очень
душно
1014.3 1013.7 +24.3 +27.7 5
18 16.05 штиль 0 н/о н/о +25.4 +24.4 94 +35 +35 очень
душно
1011.7 1011.1 +24.0 +27.7 28
21 16.05 СВ 1 н/о н/о +26.2 +24.8 92 +37 +37 очень
душно
1010.8 1010.2 +24.0 +26.5 1
00 17.05 СВ 1 н/о н/о +25.1 +24.2 95 +35 +35 очень
душно
1013.0 1012.4 +24.0 +26.5
03 17.05 штиль 0 н/о н/о +24.5 +23.6 95 +33 +33 очень
душно
1013.5 1012.9 +24.0 +26.5
06 17.05 штиль 0 н/о н/о +23.9 +23.4 97 +32 +32 очень
душно
1011.5 1010.9 +23.8 +26.5
09 17.05 штиль 0 н/о н/о +23.5 +23.0 97 +31 +31 очень
душно
1011.7 1011.1 +23.2 +26.5
12 17.05 СВ 2 н/о н/о +28.0 +24.8 83 +40 +40 очень
душно
1013.4 1012.8 +23.2 +28.1 0.2
15 17.05 СВ 3 н/о н/о +30.0 +23.0 66 +40 +40 очень
душно
1013.2 1012.6 +23.2 +30.8
18 17.05 СВ 4 н/о н/о +30.1 +23.3 67 +41 +41 опасность
перегрева
1010.6 1010.0 +23.2 +30.9
21 17.05 СВ 3 н/о н/о +28.2 +22.9 73 +38 +38 очень
душно
1010.2 1009.6 +23.2 +30.9
00 18.05 СВ 1 н/о н/о +24.9 +23.5 92 +34 +34 очень
душно
1011.5 1010.9 +23.2 +30.9
03 18.05 ЮВ 1 н/о н/о +24.6 +23.6 94 +33 +33 очень
душно
1012.5 1011.9 +23.2 +30.9 0.2
06 18.05 ЮВ 1 н/о н/о +24.2 +23.5 96 +33 +33 очень
душно
1011.1 1010.5 +23.2 +30.9 1
09 18.05 штиль 0 н/о н/о +23.4 +22.7 96 +33 +33 очень
душно
1011.1 1010.5 +23.3 +30.9 2
12 18.05 СВ 1 н/о н/о +28.6 +24.6 79 +41 +41 опасность
перегрева
1012.8 1012.2 +23.2 +30.9
15 18.05 СВ 4 н/о н/о +30.9 +22.8 62 +41 +41 опасность
перегрева
1012.7 1012.1 +23.2 +31.2
18 18.05 СВ 4 н/о н/о +29.7 +22.7 66 +39 +39 очень
душно
1010.1 1009.5 +23.2 +31.3
21 18.05 СВ 1 н/о н/о +27.8 +23.6 78 +38 +38 очень
душно
1009.7 1009.1 +23.2 +31.3 0.2
00 19.05 В 1 н/о н/о +24.7 +23.8 95 +34 +34 очень
душно
1011.6 1011.0 +23.2 +31.3 2
03 19.05 СВ 1 н/о н/о +24.1 +23.4 96 +32 +32 очень
душно
1012.2 1011.6 +23.2 +31.3 21
06 19.05 штиль 0 н/о н/о +24.1 +23.6 97 +33 +33 очень
душно
1010.4 1009.8 +23.2 +31.3 0.6

 

Местоположение метеостанции Сен-Лоран-дю-Марони (Французская Гвиана): широта 5.50 долгота -54.03 высота над уровнем моря 9 м.

В архиве по умолчанию представлена погода в Сен-Лоран-дю-Марони за последнюю неделю. Архивные данные за месяц целиком и за предыдущие месяцы, начиная с января 2011 года, Вы можете получить, выбрав интересующий диапазон дат из раскрывающегося списка и нажав кнопку "Ввод!".


*Определитесь, кто Вы:
робот инопланетянин человек

Внимание! Время в таблицах - всемирное. Для получения местного времени необходимо прибавить поправку, которая равна -3 ч.

Смотрите также архив погоды в соседних городах и на ближайших метеорологических станциях:

Погода в Аэропорту Йохан Пенгель (Суринам) (130 км)
Погода в Парамарибо (Суринам) (132 км)
Погода на Острове Stoelmans (Суринам) (135 км)
Погода в Кайенне (Французская Гвиана) (199 км)
Погода в Марипаёле (Французская Гвиана) (208 км)
Погода в Ояпоки (Амапа, Бразилия) (305 км)
Погода в Сен-Жорже (Французская Гвиана) (306 км)
Погода в Никкери (Суринам) (336 км)
Погода в Кайетуре (Гайана) (371 км)
Погода в Нью Амстердаме (Гайана) (395 км)

Пояснения к столбцам:

Ветер - указаны скорость ветра в м/с - средняя за 10 мин, порывы в срок и между сроками (в фигурных скобках) и направление, откуда дует ветер: С - северный, СВ - северо-восточный, В - восточный, ЮВ - юго-восточный, Ю - южный, ЮЗ - юго-западный, З - западный, СЗ - северо-западный.
Видимость - горизонтальная дальность видимости в метрах или километрах. При видимости от 1 до 10 км при отсутствии осадков обычно наблюдается дымка, при ухудшении видимости до 1 км и менее - туман. В сухую погоду видимость может ухудшаться дымом, пылью или мглою.
Явления - указаны атмосферные явления, наблюдавшиеся в срок или в последний час перед сроком; фигурными скобками обозначены явления, наблюдавшиеся между сроками (за 1-3 часа до срока); квадратными скобками обозначены град или гололедные отложения с указанием их диаметра в мм.
Облачность - указаны через наклонную черту общая и нижняя облачность в баллах и высота нижней границы облаков в метрах; квадратными скобками обозначены формы облаков: Ci - перистые, Cs - перисто-слоистые, Cc - перисто-кучевые, Ac - высококучевые, As - высокослоистые, Sc - слоисто-кучевые, Ns - слоисто-дождевые, Cu - кучевые, Cb - кучево-дождевые. Подробнее классификацию облаков см. в Атласе облаков (PDF).
T - Температура воздуха - температура, измеренная на высоте 2 м над землей.
Td - Температура точки росы - температура, при понижении до которой содержащийся в воздухе водяной пар достигнет насыщения.
f - Относительная влажность воздуха - влажноcть воздуха, измеренная на высоте 2 м над землей.
Te - Эффективная температура - температура, которую ощущает одетый по сезону человек в тени. Характеристика душности погоды. При расчете учитывается влияние влажности воздуха и скорости ветра на теплоощущения человека.
Tes - Эффективная температура на солнце - температура, которую ощущает человек, с поправкой на солнечный нагрев. Характеристика знойности погоды. Зависит от высоты солнца над горизонтом, облачности и скорости ветра. Ночью, в пасмурную погоду, а также при ветре 12 м/с и более поправка равна нулю.
P - Атмосферное давление - приведенное к уровню моря атмосферное давление.
Po - Атмосферное давление - измеренное на уровне метеостанции атмосферное давление.
Tmin - Минимальная температура - минимум температуры воздуха на высоте 2 м над землей.
Tmax - Максимальная температура - максимум температуры воздуха на высоте 2 м над землей.
R - Количество осадков - Количество выпавших осадков за период времени, мм. При наведении курсора мыши на число - период времени, за который выпало указанное количество осадков.
R24 - Количество осадков - Количество выпавших осадков за 24 часа, мм.
S - Снежный покров - Высота снежного покрова, см. При наведении курсора мыши на число - состояние снежного покрова и степень покрытия местности в баллах.